Dades meteomassalio
Diari Summary for Juny 27, 2017 Units:  English    Metric   Both
« Previous Day
Next Day »
Diari Semanal Mensual Anual Personalitzat
  Maxima: Minima: Mijana:
Temperatura: TemperatureC °F 16.9 °F 25.8 °F
Rosada: DewpointC °F 5.6 °F 15.9 °F
Humitat: Humidity % 19 % 58 %
Velocitat del vent: WindSpeedKMH mph 0.0 mph 10.6 mph
Racha vent: WindSpeedGustKMH mph - -
Vent:- - SSW
Pressio: PressurehPa in 1002.3 in -
Pluja: 0.0 in    
Historical Graphs
 
 
Tabular Data for Juny 27, 2017
Time Temperature Dew Point Pressure Wind Wind Speed Wind Gust Humidity Rainfall Rate (Hourly) solar Conditions
TemperatureC °F DewpointC °F PressurehPa in Calm     Humidity % HourlyPrecipMM in SolarRadiationWatts/m^2 W/m2 Conditions
00:00 23.1 °F 17.5 °F 1009.7 in Calm     71 % 0.0 in 0.0 W/m2 RA
00:05 22.8 °F 17.3 °F 1009.7 in Calm     71 % 0.0 in 0.0 W/m2 CLR
00:10 22.7 °F 17.2 °F 1010.0 in Calm     71 % 0.0 in 0.0 W/m2 CLR
00:15 22.7 °F 17.3 °F 1010.0 in Calm     72 % 0.0 in 0.0 W/m2 CLR
00:20 22.6 °F 17.3 °F 1010.0 in Calm     72 % 0.0 in 0.0 W/m2 CLR
00:25 22.4 °F 17.4 °F 1010.0 in Calm     73 % 0.0 in 0.0 W/m2 CLR
00:30 22.3 °F 17.3 °F 1010.0 in Calm     73 % 0.0 in 0.0 W/m2 CLR
00:35 22.2 °F 17.4 °F 1010.0 in Calm     74 % 0.0 in 0.0 W/m2 CLR
00:40 22.1 °F 17.4 °F 1010.0 in Calm     75 % 0.0 in 0.0 W/m2 CLR
00:45 22.0 °F 17.4 °F 1010.0 in Calm     75 % 0.0 in 0.0 W/m2 CLR
00:50 21.9 °F 17.3 °F 1010.0 in Calm     75 % 0.0 in 0.0 W/m2 CLR
00:55 21.7 °F 17.1 °F 1010.0 in Calm     75 % 0.0 in 0.0 W/m2 CLR
01:00 21.7 °F 17.3 °F 1009.7 in Calm     76 % 0.0 in 0.0 W/m2 CLR
01:05 21.6 °F 17.2 °F 1009.7 in Calm     76 % 0.0 in 0.0 W/m2 CLR
01:10 21.6 °F 17.2 °F 1009.7 in Calm     76 % 0.0 in 0.0 W/m2 CLR
01:15 21.4 °F 17.2 °F 1009.7 in Calm     77 % 0.0 in 0.0 W/m2 CLR
01:20 21.3 °F 17.1 °F 1009.7 in Calm     77 % 0.0 in 0.0 W/m2 CLR
01:25 21.3 °F 17.3 °F 1009.7 in Calm     78 % 0.0 in 0.0 W/m2 CLR
01:30 21.1 °F 17.1 °F 1009.7 in Calm     78 % 0.0 in 0.0 W/m2 CLR
01:35 21.1 °F 17.1 °F 1009.7 in Calm     78 % 0.0 in 0.0 W/m2 CLR
01:40 21.1 °F 17.1 °F 1009.7 in Calm     78 % 0.0 in 0.0 W/m2 CLR
01:45 20.9 °F 17.2 °F 1009.7 in Calm     79 % 0.0 in 0.0 W/m2 CLR
01:50 21.0 °F 17.0 °F 1009.7 in Calm     78 % 0.0 in 0.0 W/m2 CLR
01:55 21.0 °F 17.2 °F 1009.7 in Calm     79 % 0.0 in 0.0 W/m2 CLR
02:00 20.9 °F 17.1 °F 1009.7 in Calm     79 % 0.0 in 0.0 W/m2 CLR
02:05 20.8 °F 17.1 °F 1009.7 in Calm     79 % 0.0 in 0.0 W/m2 CLR
02:10 20.7 °F 16.9 °F 1009.4 in Calm     79 % 0.0 in 0.0 W/m2 CLR
02:15 20.6 °F 17.0 °F 1009.4 in Calm     80 % 0.0 in 0.0 W/m2 CLR
02:20 20.4 °F 17.0 °F 1009.4 in Calm     81 % 0.0 in 0.0 W/m2 CLR
02:25 20.2 °F 16.8 °F 1009.4 in Calm     81 % 0.0 in 0.0 W/m2 CLR
02:30 20.1 °F 16.7 °F 1009.4 in Calm     81 % 0.0 in 0.0 W/m2 CLR
02:35 20.0 °F 16.8 °F 1009.4 in Calm     82 % 0.0 in 0.0 W/m2 CLR
02:36 20.0 °F 16.8 °F 1009.4 in Calm     82 % 0.0 in 0.0 W/m2 CLR
02:41 20.0 °F 16.8 °F 1009.4 in Calm     82 % 0.0 in 0.0 W/m2 CLR
02:46 19.9 °F 16.8 °F 1009.4 in Calm     82 % 0.0 in 0.0 W/m2 CLR
02:51 19.9 °F 16.8 °F 1009.0 in Calm     82 % 0.0 in 0.0 W/m2 CLR
02:56 19.8 °F 16.7 °F 1009.0 in Calm     82 % 0.0 in 0.0 W/m2 CLR
03:01 19.8 °F 16.8 °F 1009.0 in Calm     83 % 0.0 in 0.0 W/m2 CLR
03:06 19.7 °F 16.8 °F 1009.0 in Calm     83 % 0.0 in 0.0 W/m2 CLR
03:11 19.6 °F 16.7 °F 1009.0 in Calm     83 % 0.0 in 0.0 W/m2 CLR
03:16 19.5 °F 16.7 °F 1009.0 in Calm     84 % 0.0 in 0.0 W/m2 CLR
03:21 19.4 °F 16.6 °F 1009.0 in Calm     84 % 0.0 in 0.0 W/m2 CLR
03:22 19.4 °F 16.6 °F 1009.0 in Calm     84 % 0.0 in 0.0 W/m2 CLR
03:27 19.3 °F 16.5 °F 1008.7 in Calm     84 % 0.0 in 0.0 W/m2 CLR
03:32 19.1 °F 16.6 °F 1008.7 in Calm     85 % 0.0 in 0.0 W/m2 CLR
03:37 19.1 °F 16.5 °F 1008.7 in Calm     85 % 0.0 in 0.0 W/m2 CLR
03:42 19.1 °F 16.5 °F 1008.7 in Calm     85 % 0.0 in 0.0 W/m2 CLR
03:47 18.9 °F 16.4 °F 1008.7 in Calm     85 % 0.0 in 0.0 W/m2 CLR
03:52 18.9 °F 16.3 °F 1008.7 in Calm     85 % 0.0 in 0.0 W/m2 CLR
03:57 18.7 °F 16.2 °F 1008.7 in Calm     85 % 0.0 in 0.0 W/m2 CLR
04:02 18.7 °F 16.3 °F 1008.7 in Calm     86 % 0.0 in 0.0 W/m2 CLR
04:07 18.6 °F 16.2 °F 1008.7 in Calm     86 % 0.0 in 0.0 W/m2 CLR
04:12 18.6 °F 16.2 °F 1008.7 in Calm     86 % 0.0 in 0.0 W/m2 CLR
04:17 18.6 °F 16.2 °F 1008.7 in Calm     86 % 0.0 in 0.0 W/m2 CLR
04:22 18.6 °F 16.2 °F 1008.7 in Calm     86 % 0.0 in 0.0 W/m2 CLR
04:27 18.6 °F 16.0 °F 1008.7 in Calm     85 % 0.0 in 0.0 W/m2 CLR
04:32 18.5 °F 15.9 °F 1008.7 in Calm     85 % 0.0 in 0.0 W/m2 CLR
04:37 18.5 °F 16.1 °F 1008.4 in Calm     86 % 0.0 in 0.0 W/m2 CLR
04:42 18.5 °F 16.1 °F 1008.4 in Calm     86 % 0.0 in 0.0 W/m2 CLR
04:47 18.5 °F 16.1 °F 1008.4 in Calm     86 % 0.0 in 0.0 W/m2 CLR
04:52 18.4 °F 16.1 °F 1008.4 in Calm     86 % 0.0 in 0.0 W/m2 CLR
04:57 18.4 °F 16.0 °F 1008.4 in Calm     86 % 0.0 in 0.0 W/m2 CLR
05:02 18.3 °F 15.9 °F 1008.0 in Calm     86 % 0.0 in 0.0 W/m2 CLR
05:07 18.3 °F 15.9 °F 1008.0 in Calm     86 % 0.0 in 0.0 W/m2 CLR
05:12 18.1 °F 15.7 °F 1008.0 in Calm     86 % 0.0 in 0.0 W/m2 CLR
05:17 18.0 °F 15.6 °F 1008.0 in Calm     86 % 0.0 in 0.0 W/m2 CLR
05:22 17.9 °F 15.7 °F 1008.0 in Calm     87 % 0.0 in 0.0 W/m2 CLR
05:27 17.8 °F 15.7 °F 1008.0 in Calm     87 % 0.0 in 0.0 W/m2 CLR
05:32 17.8 °F 15.6 °F 1008.0 in Calm     87 % 0.0 in 0.0 W/m2 CLR
05:37 17.7 °F 15.6 °F 1008.0 in Calm     87 % 0.0 in 0.0 W/m2 CLR
05:42 17.7 °F 15.5 °F 1008.0 in Calm     87 % 0.0 in 0.0 W/m2 CLR
05:48 17.6 °F 15.4 °F 1008.0 in Calm     87 % 0.0 in 0.0 W/m2 CLR
05:53 17.5 °F 15.5 °F 1007.7 in Calm     88 % 0.0 in 0.0 W/m2 CLR
05:58 17.4 °F 15.4 °F 1008.0 in Calm     88 % 0.0 in 0.0 W/m2 CLR
06:03 17.3 °F 15.3 °F 1007.7 in Calm     88 % 0.0 in 0.0 W/m2 CLR
06:08 17.2 °F 15.2 °F 1008.0 in Calm     88 % 0.0 in 0.0 W/m2 CLR
06:13 17.1 °F 15.1 °F 1008.0 in Calm     88 % 0.0 in 0.0 W/m2 CLR
06:18 17.1 °F 15.1 °F 1008.0 in Calm     88 % 0.0 in 0.0 W/m2 CLR
06:23 17.1 °F 15.2 °F 1008.0 in Calm     89 % 0.0 in 0.0 W/m2 OVC
06:28 17.0 °F 15.2 °F 1008.0 in Calm     89 % 0.0 in 5.0 W/m2 OVC
06:33 16.9 °F 15.1 °F 1008.0 in Calm     89 % 0.0 in 7.0 W/m2 BKN
06:38 16.9 °F 15.1 °F 1008.0 in Calm     89 % 0.0 in 9.0 W/m2 BKN
06:43 16.9 °F 15.1 °F 1007.7 in Calm     89 % 0.0 in 12.0 W/m2 BKN
06:48 16.9 °F 15.1 °F 1008.0 in Calm     89 % 0.0 in 14.0 W/m2 BKN
06:53 16.9 °F 15.1 °F 1008.0 in Calm     89 % 0.0 in 19.0 W/m2 BKN
06:58 16.9 °F 15.1 °F 1008.0 in Calm     89 % 0.0 in 23.0 W/m2 BKN
07:03 17.0 °F 15.2 °F 1008.0 in Calm     89 % 0.0 in 28.0 W/m2 BKN
07:08 17.0 °F 15.2 °F 1008.0 in Calm     89 % 0.0 in 37.0 W/m2 BKN
07:13 17.1 °F 15.2 °F 1008.0 in Calm     89 % 0.0 in 49.0 W/m2 SCT
07:18 17.2 °F 15.3 °F 1008.0 in Calm     89 % 0.0 in 56.0 W/m2 SCT
07:23 17.3 °F 15.3 °F 1008.0 in Calm     88 % 0.0 in 77.0 W/m2 FEW
07:28 17.4 °F 15.4 °F 1007.7 in Calm     88 % 0.0 in 93.0 W/m2 CLR
07:33 17.6 °F 15.4 °F 1007.7 in Calm     87 % 0.0 in 102.0 W/m2 CLR
07:38 17.8 °F 15.6 °F 1008.0 in Calm     87 % 0.0 in 120.0 W/m2 CLR
07:43 18.2 °F 15.8 °F 1007.7 in Calm     86 % 0.0 in 134.0 W/m2 CLR
07:48 18.4 °F 15.7 °F 1007.7 in Calm     84 % 0.0 in 146.0 W/m2 CLR
07:53 18.7 °F 15.8 °F 1007.7 in Calm     83 % 0.0 in 163.0 W/m2 CLR
07:58 19.1 °F 16.2 °F 1007.7 in Calm     83 % 0.0 in 185.0 W/m2 CLR
08:03 19.5 °F 16.2 °F 1007.7 in Calm     81 % 0.0 in 151.0 W/m2 CLR
08:08 19.8 °F 16.1 °F 1007.7 in Calm     79 % 0.0 in 204.0 W/m2 CLR
08:13 20.2 °F 16.1 °F 1007.7 in Calm     77 % 0.0 in 213.0 W/m2 CLR
08:18 20.6 °F 16.2 °F 1007.7 in Calm     76 % 0.0 in 163.0 W/m2 CLR
08:23 21.0 °F 16.2 °F 1007.7 in Calm     74 % 0.0 in 213.0 W/m2 CLR
08:28 21.3 °F 16.5 °F 1007.7 in Calm     74 % 0.0 in 246.0 W/m2 CLR
08:33 21.6 °F 16.6 °F 1007.7 in Calm     73 % 0.0 in 276.0 W/m2 CLR
08:38 21.9 °F 16.7 °F 1007.7 in Calm     72 % 0.0 in 253.0 W/m2 CLR
08:43 22.4 °F 16.9 °F 1007.7 in Calm     71 % 0.0 in 218.0 W/m2 CLR
08:48 22.8 °F 16.8 °F 1007.7 in Calm     69 % 0.0 in 330.0 W/m2 CLR
08:53 23.4 °F 16.9 °F 1007.3 in Calm     67 % 0.0 in 230.0 W/m2 CLR
08:54 23.5 °F 17.0 °F 1007.3 in Calm     67 % 0.0 in 348.0 W/m2 CLR
08:58 23.8 °F 16.8 °F 1007.3 in Calm     65 % 0.0 in 367.0 W/m2 CLR
09:03 24.2 °F 17.0 °F 1007.3 in Calm     64 % 0.0 in 392.0 W/m2 CLR
09:08 24.6 °F 17.3 °F 1007.3 in Calm     64 % 0.0 in 406.0 W/m2 CLR
09:13 25.1 °F 17.3 °F 1007.3 in Calm     62 % 0.0 in 397.0 W/m2 CLR
09:18 25.3 °F 17.5 °F 1007.0 in Calm     62 % 0.0 in 429.0 W/m2 CLR
09:23 25.7 °F 17.6 °F 1007.0 in Calm     61 % 0.0 in 454.0 W/m2 CLR
09:28 25.9 °F 17.8 °F 1007.0 in Calm     61 % 0.0 in 466.0 W/m2 CLR
09:33 26.2 °F 17.8 °F 1007.0 in Calm     60 % 0.0 in 469.0 W/m2 CLR
09:38 26.4 °F 18.3 °F 1007.0 in Calm     61 % 0.0 in 489.0 W/m2 CLR
09:43 26.5 °F 18.1 °F 1006.7 in Calm     60 % 0.0 in 487.0 W/m2 CLR
09:48 26.7 °F 18.1 °F 1006.7 in Calm     59 % 0.0 in 501.0 W/m2 CLR
09:53 27.0 °F 18.3 °F 1006.7 in Calm     59 % 0.0 in 512.0 W/m2 CLR
09:58 27.3 °F 18.3 °F 1006.7 in Calm     58 % 0.0 in 552.0 W/m2 CLR
10:03 27.4 °F 18.4 °F 1006.7 in Calm     58 % 0.0 in 512.0 W/m2 CLR
10:08 27.7 °F 18.4 °F 1006.3 in Calm   0.2 mph 57 % 0.0 in 552.0 W/m2 CLR
10:13 28.2 °F 18.6 °F 1006.3 in East 7.4 mph 7.4 mph 56 % 0.0 in 548.0 W/m2 CLR
10:18 28.4 °F 18.5 °F 1006.3 in ENE 7.4 mph 7.4 mph 55 % 0.0 in 599.0 W/m2 CLR
10:23 28.7 °F 18.7 °F 1006.3 in ENE 7.4 mph 7.4 mph 55 % 0.0 in 577.0 W/m2 CLR
10:28 28.9 °F 19.6 °F 1006.3 in ENE 8.0 mph 8.0 mph 57 % 0.0 in 603.0 W/m2 CLR
10:33 29.1 °F 19.4 °F 1006.0 in East 7.4 mph 7.4 mph 56 % 0.0 in 647.0 W/m2 CLR
10:38 29.2 °F 18.9 °F 1006.0 in ENE 8.0 mph 8.0 mph 54 % 0.0 in 684.0 W/m2 CLR
10:43 29.4 °F 19.1 °F 1006.0 in ENE 5.6 mph 5.6 mph 54 % 0.0 in 661.0 W/m2 CLR
10:47 29.6 °F 18.7 °F 1006.0 in ENE 5.6 mph 5.6 mph 52 % 0.0 in 631.0 W/m2 CLR
11:19 29.6 °F 18.7 °F 1006.0 in ENE 5.6 mph 5.6 mph 52 % 0.0 in 631.0 W/m2 CLR
11:24 31.2 °F 19.2 °F 1005.3 in ENE 5.6 mph 5.6 mph 49 % 0.0 in 780.0 W/m2 CLR
11:29 31.2 °F 19.2 °F 1005.3 in ENE 5.6 mph 5.6 mph 49 % 0.0 in 780.0 W/m2 CLR
11:34 31.8 °F 18.4 °F 1005.3 in WNW 11.1 mph 11.1 mph 45 % 0.0 in 545.0 W/m2 CLR
11:39 31.8 °F 19.1 °F 1005.3 in ENE 7.4 mph 7.4 mph 47 % 0.0 in 826.0 W/m2 CLR
11:44 31.8 °F 14.5 °F 1005.3 in SE 20.4 mph 20.4 mph 35 % 0.0 in 735.0 W/m2 CLR
11:49 32.2 °F 18.0 °F 1005.0 in NNW 20.4 mph 20.4 mph 43 % 0.0 in 589.0 W/m2 CLR
11:54 31.5 °F 18.8 °F 1005.3 in NNW 25.9 mph 25.9 mph 47 % 0.0 in 708.0 W/m2 CLR
11:59 31.1 °F 18.4 °F 1005.3 in North 18.5 mph 18.5 mph 47 % 0.0 in 271.0 W/m2 CLR
12:04 31.2 °F 17.4 °F 1005.0 in NNE 9.3 mph 9.3 mph 44 % 0.0 in 670.0 W/m2 CLR
12:09 31.8 °F 15.3 °F 1005.0 in NNE 11.1 mph 11.1 mph 37 % 0.0 in 740.0 W/m2 CLR
12:14 32.6 °F 17.6 °F 1005.0 in WNW 13.0 mph 13.0 mph 41 % 0.0 in 958.0 W/m2 CLR
12:19 32.9 °F 16.7 °F 1005.0 in NW 16.7 mph 16.7 mph 38 % 0.0 in 884.0 W/m2 CLR
12:24 32.9 °F 16.3 °F 1005.0 in North 11.1 mph 11.1 mph 37 % 0.0 in 779.0 W/m2 CLR
12:29 32.9 °F 16.3 °F 1005.0 in WNW 14.8 mph 14.8 mph 37 % 0.0 in 364.0 W/m2 CLR
12:34 32.9 °F 16.7 °F 1005.0 in NNW 24.1 mph 24.1 mph 38 % 0.0 in 288.0 W/m2 CLR
12:39 32.8 °F 15.7 °F 1005.0 in NW 14.5 mph 14.5 mph 36 % 0.0 in 253.0 W/m2 CLR
12:44 32.6 °F 16.0 °F 1005.0 in North 20.4 mph 20.4 mph 37 % 0.0 in 380.0 W/m2 CLR
12:49 32.7 °F 16.9 °F 1005.0 in North 18.5 mph 18.5 mph 39 % 0.0 in 738.0 W/m2 CLR
12:54 32.9 °F 17.2 °F 1005.0 in NW 19.3 mph 19.3 mph 39 % 0.0 in 278.0 W/m2 CLR
12:55 32.9 °F 17.2 °F 1005.0 in NNW 17.7 mph 17.7 mph 39 % 0.0 in 278.0 W/m2 CLR
13:00 32.7 °F 16.9 °F 1005.0 in North 22.2 mph 22.2 mph 39 % 0.0 in 338.0 W/m2 CLR
13:05 32.8 °F 17.8 °F 1005.0 in North 16.7 mph 16.7 mph 41 % 0.0 in 916.0 W/m2 CLR
13:10 33.0 °F 15.9 °F 1005.0 in NNE 24.1 mph 24.1 mph 36 % 0.0 in 772.0 W/m2 CLR
13:15 33.2 °F 15.2 °F 1004.6 in North 27.8 mph 27.8 mph 34 % 0.0 in 972.0 W/m2 CLR
13:20 33.3 °F 14.9 °F 1004.6 in NNE 25.9 mph 25.9 mph 33 % 0.0 in 671.0 W/m2 CLR
13:25 33.5 °F 15.0 °F 1005.0 in NE 9.3 mph 9.3 mph 33 % 0.0 in 1007.0 W/m2 CLR
13:30 33.6 °F 13.6 °F 1004.6 in North 22.2 mph 22.2 mph 30 % 0.0 in 930.0 W/m2 CLR
13:35 33.3 °F 14.4 °F 1004.6 in ENE 18.5 mph 18.5 mph 32 % 0.0 in 990.0 W/m2 CLR
13:40 33.7 °F 14.2 °F 1004.6 in NNW 27.8 mph 27.8 mph 31 % 0.0 in 1055.0 W/m2 CLR
13:45 33.8 °F 15.3 °F 1004.6 in NNE 18.5 mph 18.5 mph 33 % 0.0 in 1016.0 W/m2 CLR
13:50 33.9 °F 15.8 °F 1004.6 in WNW 25.9 mph 25.9 mph 34 % 0.0 in 1018.0 W/m2 CLR
13:55 33.7 °F 14.7 °F 1004.3 in NW 27.8 mph 27.8 mph 32 % 0.0 in 993.0 W/m2 CLR
13:57 33.8 °F 17.5 °F 1003.9 in NNE 31.5 mph 31.5 mph 38 % 0.0 in 981.0 W/m2 CLR
14:02 33.6 °F 17.3 °F 1004.3 in ESE 25.9 mph 25.9 mph 38 % 0.0 in 874.0 W/m2 CLR
14:07 33.3 °F 17.9 °F 1004.3 in ESE 9.3 mph 9.3 mph 40 % 0.0 in 958.0 W/m2 CLR
14:12 33.2 °F 17.4 °F 1003.9 in ENE 14.8 mph 14.8 mph 39 % 0.0 in 840.0 W/m2 CLR
14:17 33.2 °F 17.0 °F 1003.9 in SSE 9.3 mph 9.3 mph 38 % 0.0 in 840.0 W/m2 CLR
14:22 33.1 °F 17.3 °F 1003.9 in SE 8.0 mph 8.0 mph 39 % 0.0 in 1013.0 W/m2 CLR
14:27 32.7 °F 18.1 °F 1003.6 in ESE 13.0 mph 13.0 mph 42 % 0.0 in 1016.0 W/m2 CLR
14:32 32.7 °F 16.9 °F 1003.6 in ESE 22.2 mph 22.2 mph 39 % 0.0 in 896.0 W/m2 CLR
14:37 32.9 °F 16.7 °F 1003.6 in ESE 11.1 mph 11.1 mph 38 % 0.0 in 759.0 W/m2 CLR
14:42 32.8 °F 17.4 °F 1003.3 in East 18.5 mph 18.5 mph 40 % 0.0 in 895.0 W/m2 CLR
14:48 32.5 °F 17.2 °F 1003.3 in ESE 20.4 mph 20.4 mph 40 % 0.0 in 489.0 W/m2 CLR
14:58 32.2 °F 17.6 °F 1003.3 in ESE 27.8 mph 27.8 mph 42 % 0.0 in 438.0 W/m2 CLR
15:03 31.9 °F 18.5 °F 1003.3 in East 14.5 mph 14.5 mph 45 % 0.0 in 550.0 W/m2 CLR
15:08 31.6 °F 18.6 °F 1003.6 in East 16.7 mph 16.7 mph 46 % 0.0 in 984.0 W/m2 CLR
15:13 31.9 °F 17.8 °F 1003.6 in SE 18.5 mph 18.5 mph 43 % 0.0 in 877.0 W/m2 CLR
15:18 32.0 °F 17.8 °F 1003.6 in SE 11.1 mph 11.1 mph 43 % 0.0 in 666.0 W/m2 CLR
15:23 32.3 °F 18.4 °F 1003.3 in SE 5.6 mph 5.6 mph 44 % 0.0 in 991.0 W/m2 CLR
15:28 32.4 °F 17.5 °F 1003.3 in Calm     41 % 0.0 in 944.0 W/m2 CLR
15:33 32.7 °F 18.1 °F 1003.6 in NE 5.6 mph 5.6 mph 42 % 0.0 in 986.0 W/m2 CLR
15:38 32.6 °F 19.5 °F 1003.3 in East 20.4 mph 20.4 mph 46 % 0.0 in 981.0 W/m2 CLR
15:43 31.7 °F 19.0 °F 1003.3 in SE 31.5 mph 31.5 mph 47 % 0.0 in 926.0 W/m2 CLR
15:48 31.4 °F 19.1 °F 1002.9 in ESE 24.1 mph 24.1 mph 48 % 0.0 in 944.0 W/m2 CLR
15:53 31.5 °F 19.2 °F 1002.9 in ESE 25.9 mph 25.9 mph 48 % 0.0 in 956.0 W/m2 CLR
15:58 31.1 °F 19.1 °F 1002.9 in East 24.1 mph 24.1 mph 49 % 0.0 in 1044.0 W/m2 CLR
16:03 30.6 °F 19.3 °F 1003.3 in East 35.2 mph 35.2 mph 51 % 0.0 in 169.0 W/m2 CLR
16:08 29.8 °F 19.4 °F 1003.3 in ESE 25.9 mph 25.9 mph 54 % 0.0 in 216.0 W/m2 CLR
16:13 29.6 °F 19.6 °F 1003.3 in ESE 18.5 mph 18.5 mph 55 % 0.0 in 297.0 W/m2 CLR
16:18 29.2 °F 19.2 °F 1003.3 in ENE 22.2 mph 22.2 mph 55 % 0.0 in 239.0 W/m2 CLR
16:23 29.1 °F 19.4 °F 1003.3 in ESE 14.8 mph 14.8 mph 56 % 0.0 in 888.0 W/m2 CLR
16:28 29.2 °F 19.6 °F 1003.3 in ESE 18.5 mph 18.5 mph 56 % 0.0 in 805.0 W/m2 CLR
16:33 29.4 °F 19.7 °F 1003.3 in SE 16.7 mph 16.7 mph 56 % 0.0 in 773.0 W/m2 CLR
16:38 29.6 °F 19.6 °F 1003.3 in SE 18.5 mph 18.5 mph 55 % 0.0 in 759.0 W/m2 CLR
16:43 29.9 °F 19.9 °F 1002.9 in ESE 20.4 mph 20.4 mph 55 % 0.0 in 761.0 W/m2 CLR
16:48 30.0 °F 19.7 °F 1003.3 in East 11.1 mph 11.1 mph 54 % 0.0 in 744.0 W/m2 CLR
16:53 29.9 °F 19.6 °F 1002.9 in East 1.9 mph 1.9 mph 54 % 0.0 in 731.0 W/m2 CLR
16:58 30.2 °F 19.6 °F 1002.9 in SE 11.3 mph 11.3 mph 53 % 0.0 in 722.0 W/m2 CLR
17:03 30.6 °F 18.3 °F 1002.9 in NE 5.6 mph 5.6 mph 48 % 0.0 in 705.0 W/m2 CLR
17:08 31.1 °F 18.4 °F 1002.6 in East 5.6 mph 5.6 mph 47 % 0.0 in 700.0 W/m2 CLR
17:13 31.7 °F 17.9 °F 1002.6 in NE 12.9 mph 12.9 mph 44 % 0.0 in 682.0 W/m2 CLR
17:18 32.2 °F 17.2 °F 1002.6 in NE 5.6 mph 5.6 mph 41 % 0.0 in 671.0 W/m2 CLR
17:23 32.5 °F 17.6 °F 1002.6 in ENE 5.6 mph 5.6 mph 41 % 0.0 in 661.0 W/m2 CLR
17:28 32.8 °F 17.4 °F 1002.6 in NNE 9.7 mph 9.7 mph 40 % 0.0 in 642.0 W/m2 CLR
17:33 32.8 °F 17.8 °F 1002.6 in ENE 7.4 mph 7.4 mph 41 % 0.0 in 640.0 W/m2 CLR
17:38 32.6 °F 18.8 °F 1002.3 in ESE 3.7 mph 3.7 mph 44 % 0.0 in 615.0 W/m2 CLR
17:43 32.0 °F 19.3 °F 1002.3 in ESE 11.1 mph 11.1 mph 47 % 0.0 in 605.0 W/m2 CLR
17:48 31.9 °F 19.2 °F 1002.6 in Calm     47 % 0.0 in 599.0 W/m2 CLR
17:53 31.8 °F 19.4 °F 1002.6 in ENE 5.6 mph 5.6 mph 48 % 0.0 in 592.0 W/m2 CLR
17:58 31.9 °F 19.5 °F 1002.6 in Calm     48 % 0.0 in 582.0 W/m2 CLR
18:00 32.0 °F 19.3 °F 1002.6 in NNW 8.0 mph 8.0 mph 47 % 0.0 in 587.0 W/m2 CLR
18:05 31.6 °F 18.9 °F 1002.6 in SE 13.0 mph 13.0 mph 47 % 0.0 in 90.0 W/m2 CLR
18:10 30.8 °F 18.9 °F 1002.6 in East 13.0 mph 13.0 mph 49 % 0.0 in 127.0 W/m2 CLR
18:11 30.7 °F 18.8 °F 1002.6 in East 11.1 mph 11.1 mph 49 % 0.0 in 137.0 W/m2 CLR
18:16 30.2 °F 18.9 °F 1002.6 in ESE 22.2 mph 22.2 mph 51 % 0.0 in 105.0 W/m2 CLR
18:21 29.9 °F 18.9 °F 1002.6 in ENE 16.7 mph 16.7 mph 52 % 0.0 in 109.0 W/m2 CLR
18:26 29.8 °F 19.2 °F 1002.9 in ENE 16.7 mph 16.7 mph 53 % 0.0 in 118.0 W/m2 CLR
18:31 29.7 °F 18.8 °F 1002.6 in ESE 18.5 mph 18.5 mph 52 % 0.0 in 125.0 W/m2 CLR
18:36 29.4 °F 19.4 °F 1002.6 in ESE 16.7 mph 16.7 mph 55 % 0.0 in 132.0 W/m2 CLR
18:41 29.3 °F 19.6 °F 1002.6 in ESE 18.5 mph 18.5 mph 56 % 0.0 in 153.0 W/m2 CLR
18:46 29.4 °F 19.4 °F 1002.6 in ESE 18.5 mph 18.5 mph 55 % 0.0 in 190.0 W/m2 CLR
18:51 29.4 °F 19.4 °F 1002.6 in Calm     55 % 0.0 in 155.0 W/m2 CLR
18:56 29.4 °F 19.7 °F 1002.6 in ESE 4.8 mph 4.8 mph 56 % 0.0 in 199.0 W/m2 CLR
19:01 29.7 °F 19.4 °F 1002.9 in Calm     54 % 0.0 in 497.0 W/m2 CLR
19:06 30.0 °F 19.4 °F 1002.6 in East 7.4 mph 7.4 mph 53 % 0.0 in 489.0 W/m2 CLR
19:11 30.1 °F 19.5 °F 1002.6 in East 9.3 mph 9.3 mph 53 % 0.0 in 448.0 W/m2 CLR
19:16 30.3 °F 19.3 °F 1002.6 in ENE 9.3 mph 9.3 mph 52 % 0.0 in 438.0 W/m2 CLR
19:21 30.4 °F 19.4 °F 1002.6 in WNW 13.0 mph 13.0 mph 52 % 0.0 in 427.0 W/m2 CLR
19:26 31.3 °F 9.6 °F 1002.6 in NE 24.1 mph 24.1 mph 26 % 0.0 in 396.0 W/m2 CLR
19:31 32.3 °F 9.7 °F 1002.9 in NNW 20.4 mph 20.4 mph 25 % 0.0 in 353.0 W/m2 CLR
19:36 32.7 °F 7.5 °F 1002.9 in NNW 24.1 mph 24.1 mph 21 % 0.0 in 311.0 W/m2 CLR
19:41 32.8 °F 6.9 °F 1002.6 in NNW 46.3 mph 46.3 mph 20 % 0.0 in 281.0 W/m2 CLR
19:46 32.6 °F 6.7 °F 1002.9 in NNW 37.0 mph 37.0 mph 20 % 0.0 in 253.0 W/m2 CLR
19:51 32.4 °F 6.6 °F 1002.6 in NNW 33.3 mph 33.3 mph 20 % 0.0 in 236.0 W/m2 CLR
19:56 32.4 °F 6.6 °F 1002.9 in NW 24.1 mph 24.1 mph 20 % 0.0 in 214.0 W/m2 CLR
20:01 32.3 °F 5.8 °F 1002.9 in NW 35.2 mph 35.2 mph 19 % 0.0 in 199.0 W/m2 CLR
20:06 32.2 °F 5.7 °F 1002.9 in NW 44.4 mph 44.4 mph 19 % 0.0 in 179.0 W/m2 CLR
20:11 32.1 °F 5.6 °F 1002.9 in NW 38.9 mph 38.9 mph 19 % 0.0 in 162.0 W/m2 CLR
20:16 32.0 °F 6.2 °F 1002.9 in NW 33.3 mph 33.3 mph 20 % 0.0 in 146.0 W/m2 CLR
20:21 31.9 °F 6.1 °F 1002.9 in NNW 35.2 mph 35.2 mph 20 % 0.0 in 132.0 W/m2 CLR
20:26 31.8 °F 6.8 °F 1002.9 in NNW 29.6 mph 29.6 mph 21 % 0.0 in 116.0 W/m2 CLR
20:31 31.7 °F 6.7 °F 1002.9 in NW 22.2 mph 22.2 mph 21 % 0.0 in 98.0 W/m2 CLR
20:36 31.6 °F 7.3 °F 1002.9 in NNW 31.5 mph 31.5 mph 22 % 0.0 in 84.0 W/m2 CLR
20:41 31.2 °F 9.9 °F 1003.3 in North 31.5 mph 31.5 mph 27 % 0.0 in 70.0 W/m2 FEW
20:46 30.6 °F 10.6 °F 1003.3 in NW 31.5 mph 31.5 mph 29 % 0.0 in 47.0 W/m2 SCT
20:47 30.5 °F 10.4 °F 1003.3 in North 25.9 mph 25.9 mph 29 % 0.0 in 30.0 W/m2 BKN
20:52 30.3 °F 10.3 °F 1003.3 in North 29.6 mph 29.6 mph 29 % 0.0 in 42.0 W/m2 BKN
20:57 30.1 °F 10.1 °F 1003.6 in North 20.4 mph 20.4 mph 29 % 0.0 in 33.0 W/m2 BKN
21:02 29.8 °F 10.4 °F 1003.6 in North 33.8 mph 33.8 mph 30 % 0.0 in 25.0 W/m2 BKN
21:08 29.3 °F 10.9 °F 1003.9 in NNW 42.6 mph 42.6 mph 32 % 0.0 in 19.0 W/m2 BKN
21:13 28.9 °F 11.0 °F 1003.9 in NW 33.8 mph 33.8 mph 33 % 0.0 in 14.0 W/m2 BKN
21:18 28.4 °F 11.1 °F 1003.9 in NNW 24.1 mph 24.1 mph 34 % 0.0 in 12.0 W/m2 BKN
21:23 28.2 °F 11.3 °F 1004.3 in North 24.1 mph 24.1 mph 35 % 0.0 in 9.0 W/m2 BKN
21:28 27.9 °F 11.4 °F 1004.3 in NNW 25.9 mph 25.9 mph 36 % 0.0 in 5.0 W/m2 OVC
21:33 27.5 °F 11.1 °F 1004.3 in NNW 27.8 mph 27.8 mph 36 % 0.0 in 0.0 W/m2 OVC
21:38 27.2 °F 11.3 °F 1004.3 in NW 25.9 mph 25.9 mph 37 % 0.0 in 0.0 W/m2 OVC
21:43 26.9 °F 11.8 °F 1004.3 in NNW 27.8 mph 27.8 mph 39 % 0.0 in 0.0 W/m2 OVC
21:48 26.6 °F 11.9 °F 1004.3 in NW 35.2 mph 35.2 mph 40 % 0.0 in 0.0 W/m2 CLR
21:53 26.4 °F 12.1 °F 1004.6 in NW 27.4 mph 27.4 mph 41 % 0.0 in 0.0 W/m2 CLR
21:58 26.2 °F 12.2 °F 1004.6 in NW 31.5 mph 31.5 mph 42 % 0.0 in 0.0 W/m2 CLR
22:03 26.0 °F 12.4 °F 1005.0 in NW 35.2 mph 35.2 mph 43 % 0.0 in 0.0 W/m2 CLR
22:08 25.9 °F 12.3 °F 1005.0 in NNW 30.6 mph 30.6 mph 43 % 0.0 in 0.0 W/m2 CLR
22:13 25.7 °F 12.6 °F 1005.0 in NNW 29.0 mph 29.0 mph 44 % 0.0 in 0.0 W/m2 CLR
22:18 25.6 °F 12.7 °F 1005.3 in NW 29.6 mph 29.6 mph 45 % 0.0 in 0.0 W/m2 CLR
22:23 25.4 °F 12.6 °F 1005.3 in WNW 24.1 mph 24.1 mph 45 % 0.0 in 0.0 W/m2 CLR
22:28 25.2 °F 12.8 °F 1005.3 in NNW 24.1 mph 24.1 mph 46 % 0.0 in 0.0 W/m2 CLR
22:30 25.2 °F 12.7 °F 1005.3 in NW 27.8 mph 27.8 mph 46 % 0.0 in 0.0 W/m2 CLR
22:35 25.1 °F 12.6 °F 1005.6 in NW 22.2 mph 22.2 mph 46 % 0.0 in 0.0 W/m2 CLR
22:40 24.9 °F 12.8 °F 1005.6 in NW 19.3 mph 19.3 mph 47 % 0.0 in 0.0 W/m2 CLR
22:45 24.8 °F 12.8 °F 1005.6 in WNW 20.9 mph 20.9 mph 47 % 0.0 in 0.0 W/m2 CLR
22:50 24.8 °F 12.7 °F 1005.6 in NW 22.2 mph 22.2 mph 47 % 0.0 in 0.0 W/m2 CLR
22:55 24.7 °F 12.7 °F 1005.6 in NNW 20.4 mph 20.4 mph 47 % 0.0 in 0.0 W/m2 CLR
23:00 24.6 °F 12.6 °F 1006.0 in NW 24.1 mph 24.1 mph 47 % 0.0 in 0.0 W/m2 CLR
23:05 24.6 °F 12.5 °F 1005.6 in NW 16.7 mph 16.7 mph 47 % 0.0 in 0.0 W/m2 CLR
23:10 24.5 °F 12.8 °F 1005.6 in WNW 25.7 mph 25.7 mph 48 % 0.0 in 0.0 W/m2 CLR
23:11 24.5 °F 12.4 °F 1005.6 in WNW 25.9 mph 25.9 mph 47 % 0.0 in 0.0 W/m2 CLR
23:16 24.5 °F 12.8 °F 1006.0 in WNW 22.2 mph 22.2 mph 48 % 0.0 in 0.0 W/m2 CLR
23:21 24.4 °F 12.4 °F 1006.0 in WNW 24.1 mph 24.1 mph 47 % 0.0 in 0.0 W/m2 CLR
23:26 24.4 °F 12.7 °F 1006.0 in WNW 18.5 mph 18.5 mph 48 % 0.0 in 0.0 W/m2 CLR
23:31 24.3 °F 12.6 °F 1006.3 in West 18.5 mph 18.5 mph 48 % 0.0 in 0.0 W/m2 CLR
23:36 24.3 °F 12.6 °F 1006.3 in WNW 17.7 mph 17.7 mph 48 % 0.0 in 0.0 W/m2 CLR
23:41 24.3 °F 12.6 °F 1006.3 in West 16.7 mph 16.7 mph 48 % 0.0 in 0.0 W/m2 CLR
23:46 24.2 °F 12.5 °F 1006.3 in West 16.7 mph 16.7 mph 48 % 0.0 in 0.0 W/m2 CLR
23:51 24.2 °F 12.8 °F 1006.3 in SW 11.1 mph 11.1 mph 49 % 0.0 in 0.0 W/m2 CLR
23:56 24.1 °F 12.7 °F 1006.7 in West 9.7 mph 9.7 mph 49 % 0.0 in 0.0 W/m2 CLR
Lo Temps de Massalio
Compliments of Weather Underground - 1.25 mb